Time,TemperatureF,DewpointF,PressureIn,WindDirection,WindDirectionDegrees,WindSpeedMPH,WindSpeedGustMPH,Humidity,HourlyPrecipIn,Conditions,Clouds,dailyrainin,SoftwareType,DateUTC
2013-02-02 00:01:00,42.0,40.0,29.84,West,270,0.0,0.0,91,0.00,,,0.03,,2013-02-02 08:01:00,
2013-02-02 00:11:00,42.0,40.0,29.84,West,270,0.0,0.0,91,0.00,,,0.03,,2013-02-02 08:11:00,
2013-02-02 00:21:00,43.0,41.0,29.84,East,90,1.0,2.0,91,0.00,,,0.03,,2013-02-02 08:21:00,
2013-02-02 00:31:00,43.0,41.0,29.84,NE,45,1.0,1.0,91,0.00,,,0.03,,2013-02-02 08:31:00,
2013-02-02 00:41:00,43.0,41.0,29.84,NE,45,1.0,1.0,91,0.00,,,0.03,,2013-02-02 08:41:00,
2013-02-02 00:52:00,43.0,41.0,29.83,ESE,113,1.0,4.0,91,0.00,,,0.00,,2013-02-02 08:52:00,
2013-02-02 01:01:00,43.0,41.0,29.83,NNW,338,1.0,3.0,92,0.00,,,0.00,,2013-02-02 09:01:00,
2013-02-02 01:11:00,43.0,41.0,29.83,NNW,338,1.0,3.0,92,0.00,,,0.00,,2013-02-02 09:11:00,
2013-02-02 01:22:00,43.0,41.0,29.83,WSW,248,1.0,3.0,92,0.00,,,0.00,,2013-02-02 09:22:00,
2013-02-02 01:31:00,43.0,41.0,29.83,NNW,338,2.0,2.0,92,0.00,,,0.00,,2013-02-02 09:31:00,
2013-02-02 01:41:00,43.0,41.0,29.83,NNW,338,2.0,2.0,92,0.00,,,0.00,,2013-02-02 09:41:00,
2013-02-02 01:51:00,43.0,41.0,29.83,NNW,338,2.0,4.0,93,0.00,,,0.00,,2013-02-02 09:51:00,
2013-02-02 02:01:00,43.0,41.0,29.83,North,0,1.0,4.0,92,0.00,,,0.00,,2013-02-02 10:01:00,
2013-02-02 02:11:00,43.0,41.0,29.83,North,0,1.0,4.0,92,0.00,,,0.00,,2013-02-02 10:11:00,
2013-02-02 02:21:00,43.0,41.0,29.83,SSE,158,0.0,1.0,92,0.00,,,0.00,,2013-02-02 10:21:00,
2013-02-02 02:31:00,43.0,41.0,29.83,ESE,113,1.0,2.0,93,0.00,,,0.00,,2013-02-02 10:31:00,
2013-02-02 02:41:00,43.0,41.0,29.83,ESE,113,1.0,2.0,93,0.00,,,0.00,,2013-02-02 10:41:00,
2013-02-02 02:52:00,43.0,41.0,29.83,ENE,68,0.0,2.0,93,0.00,,,0.00,,2013-02-02 10:52:00,
2013-02-02 03:01:00,43.0,41.0,29.83,WSW,248,0.0,0.0,92,0.00,,,0.00,,2013-02-02 11:01:00,
2013-02-02 03:11:00,43.0,41.0,29.83,WSW,248,0.0,0.0,92,0.00,,,0.00,,2013-02-02 11:11:00,
2013-02-02 03:21:00,43.0,41.0,29.83,NNW,338,0.0,1.0,93,0.00,,,0.00,,2013-02-02 11:21:00,
2013-02-02 03:31:00,43.0,41.0,29.83,NE,45,0.0,1.0,93,0.00,,,0.00,,2013-02-02 11:31:00,
2013-02-02 03:41:00,43.0,41.0,29.83,NE,45,0.0,1.0,93,0.00,,,0.00,,2013-02-02 11:41:00,
2013-02-02 03:52:00,43.0,41.0,29.83,NNW,338,0.0,1.0,93,0.00,,,0.00,,2013-02-02 11:52:00,
2013-02-02 04:01:00,42.0,40.0,29.81,NE,45,1.0,2.0,93,0.00,,,0.00,,2013-02-02 12:01:00,
2013-02-02 04:11:00,42.0,40.0,29.81,NE,45,1.0,2.0,93,0.00,,,0.00,,2013-02-02 12:11:00,
2013-02-02 04:22:00,42.0,40.0,29.81,NNW,338,1.0,2.0,93,0.00,,,0.00,,2013-02-02 12:22:00,
2013-02-02 04:32:00,42.0,40.0,29.82,North,0,1.0,1.0,93,0.00,,,0.00,,2013-02-02 12:32:00,
2013-02-02 04:42:00,42.0,40.0,29.82,North,0,1.0,1.0,93,0.00,,,0.00,,2013-02-02 12:42:00,
2013-02-02 04:52:00,42.0,40.0,29.82,NW,315,1.0,2.0,93,0.00,,,0.00,,2013-02-02 12:52:00,
2013-02-02 05:02:00,41.0,39.0,29.80,NNW,338,1.0,3.0,93,0.00,,,0.00,,2013-02-02 13:02:00,
2013-02-02 05:11:00,41.0,39.0,29.80,NNW,338,1.0,3.0,93,0.00,,,0.00,,2013-02-02 13:11:00,
2013-02-02 05:21:00,41.0,39.0,29.80,NNW,338,1.0,2.0,93,0.00,,,0.00,,2013-02-02 13:21:00,
2013-02-02 05:32:00,41.0,39.0,29.80,NW,315,1.0,2.0,93,0.00,,,0.00,,2013-02-02 13:32:00,
2013-02-02 05:42:00,41.0,39.0,29.80,NW,315,1.0,2.0,93,0.00,,,0.00,,2013-02-02 13:42:00,
2013-02-02 05:52:00,41.0,39.0,29.80,NNW,338,1.0,1.0,93,0.00,,,0.00,,2013-02-02 13:52:00,
2013-02-02 06:01:00,41.0,39.0,29.79,North,0,1.0,1.0,93,0.00,,,0.00,,2013-02-02 14:01:00,
2013-02-02 06:11:00,41.0,39.0,29.79,North,0,1.0,1.0,93,0.00,,,0.00,,2013-02-02 14:11:00,
2013-02-02 06:22:00,41.0,39.0,29.79,NNW,338,0.0,1.0,93,0.00,,,0.00,,2013-02-02 14:22:00,
2013-02-02 06:31:00,41.0,39.0,29.79,WNW,293,0.0,0.0,93,0.00,,,0.00,,2013-02-02 14:31:00,
2013-02-02 06:41:00,41.0,39.0,29.79,WNW,293,0.0,0.0,93,0.00,,,0.00,,2013-02-02 14:41:00,
2013-02-02 06:52:00,41.0,39.0,29.79,ESE,113,0.0,2.0,93,0.00,,,0.00,,2013-02-02 14:52:00,
2013-02-02 07:02:00,41.0,39.0,29.79,SSW,203,0.0,2.0,93,0.00,,,0.00,,2013-02-02 15:02:00,
2013-02-02 07:11:00,41.0,39.0,29.79,SSW,203,0.0,2.0,93,0.00,,,0.00,,2013-02-02 15:11:00,
2013-02-02 07:21:00,41.0,39.0,29.79,WNW,293,0.0,0.0,93,0.00,,,0.00,,2013-02-02 15:21:00,
2013-02-02 07:32:00,41.0,39.0,29.79,NNW,338,0.0,0.0,93,0.00,,,0.00,,2013-02-02 15:32:00,
2013-02-02 07:41:00,41.0,39.0,29.79,NNW,338,0.0,0.0,93,0.00,,,0.00,,2013-02-02 15:41:00,
2013-02-02 07:52:00,40.0,38.0,29.78,NNW,338,1.0,2.0,93,0.00,,,0.00,,2013-02-02 15:52:00,
2013-02-02 08:01:00,40.0,38.0,29.78,West,270,1.0,1.0,93,0.00,,,0.00,,2013-02-02 16:01:00,
2013-02-02 08:11:00,40.0,38.0,29.78,West,270,1.0,1.0,93,0.00,,,0.00,,2013-02-02 16:11:00,
2013-02-02 08:21:00,40.0,38.0,29.78,NW,315,1.0,2.0,93,0.00,,,0.00,,2013-02-02 16:21:00,
2013-02-02 08:31:00,40.0,38.0,29.78,NE,45,1.0,3.0,92,0.00,,,0.00,,2013-02-02 16:31:00,
2013-02-02 08:42:00,40.0,38.0,29.78,NE,45,1.0,3.0,92,0.00,,,0.00,,2013-02-02 16:42:00,
2013-02-02 08:52:00,40.0,38.0,29.79,West,270,1.0,1.0,92,0.00,,,0.00,,2013-02-02 16:52:00,
2013-02-02 09:01:00,40.0,38.0,29.78,NNW,338,0.0,2.0,92,0.00,,,0.00,,2013-02-02 17:01:00,
2013-02-02 09:11:00,40.0,38.0,29.78,NNW,338,0.0,2.0,92,0.00,,,0.00,,2013-02-02 17:11:00,
2013-02-02 09:21:00,40.0,38.0,29.79,WNW,293,1.0,2.0,92,0.00,,,0.00,,2013-02-02 17:21:00,
2013-02-02 09:31:00,40.0,38.0,29.79,NW,315,1.0,3.0,91,0.00,,,0.00,,2013-02-02 17:31:00,
2013-02-02 09:41:00,40.0,38.0,29.79,NW,315,1.0,3.0,91,0.00,,,0.00,,2013-02-02 17:41:00,
2013-02-02 09:52:00,40.0,38.0,29.79,NNW,338,0.0,2.0,91,0.00,,,0.00,,2013-02-02 17:52:00,
2013-02-02 10:01:00,40.0,37.0,29.79,West,270,0.0,1.0,90,0.00,,,0.00,,2013-02-02 18:01:00,
2013-02-02 10:11:00,40.0,37.0,29.79,West,270,0.0,1.0,90,0.00,,,0.00,,2013-02-02 18:11:00,
2013-02-02 10:21:00,41.0,38.0,29.80,SSW,203,0.0,1.0,90,0.00,,,0.00,,2013-02-02 18:21:00,
2013-02-02 10:31:00,41.0,38.0,29.79,ESE,113,0.0,0.0,89,0.00,,,0.00,,2013-02-02 18:31:00,
2013-02-02 10:41:00,41.0,38.0,29.79,ESE,113,0.0,0.0,89,0.00,,,0.00,,2013-02-02 18:41:00,
2013-02-02 10:52:00,42.0,39.0,29.79,SW,225,0.0,1.0,88,0.00,,,0.00,,2013-02-02 18:52:00,
2013-02-02 11:01:00,42.0,39.0,29.79,NNE,23,0.0,0.0,88,0.00,,,0.00,,2013-02-02 19:01:00,
2013-02-02 11:11:00,42.0,39.0,29.79,NNE,23,0.0,0.0,88,0.00,,,0.00,,2013-02-02 19:11:00,
2013-02-02 11:21:00,42.0,38.0,29.78,WSW,248,0.0,0.0,86,0.00,,,0.00,,2013-02-02 19:21:00,
2013-02-02 11:31:00,43.0,39.0,29.78,ENE,68,0.0,0.0,86,0.00,,,0.00,,2013-02-02 19:31:00,
2013-02-02 11:41:00,43.0,39.0,29.78,ENE,68,0.0,0.0,86,0.00,,,0.00,,2013-02-02 19:41:00,
2013-02-02 11:52:00,44.0,40.0,29.78,West,270,0.0,2.0,85,0.00,,,0.00,,2013-02-02 19:52:00,
2013-02-02 12:01:00,43.0,38.0,29.78,SW,225,1.0,2.0,83,0.00,,,0.00,,2013-02-02 20:01:00,
2013-02-02 12:11:00,43.0,38.0,29.78,SW,225,1.0,2.0,83,0.00,,,0.00,,2013-02-02 20:11:00,
2013-02-02 12:21:00,42.0,37.0,29.77,WNW,293,1.0,2.0,83,0.00,,,0.00,,2013-02-02 20:21:00,
2013-02-02 12:32:00,42.0,37.0,29.76,NNW,338,0.0,2.0,83,0.00,,,0.00,,2013-02-02 20:32:00,
2013-02-02 12:41:00,42.0,37.0,29.76,NNW,338,0.0,2.0,83,0.00,,,0.00,,2013-02-02 20:41:00,
2013-02-02 12:52:00,43.0,38.0,29.76,WSW,248,0.0,2.0,82,0.00,,,0.00,,2013-02-02 20:52:00,
2013-02-02 13:01:00,43.0,37.0,29.77,WNW,293,0.0,2.0,80,0.00,,,0.00,,2013-02-02 21:01:00,
2013-02-02 13:11:00,43.0,37.0,29.77,WNW,293,0.0,2.0,80,0.00,,,0.00,,2013-02-02 21:11:00,
2013-02-02 13:21:00,43.0,37.0,29.75,SE,135,0.0,2.0,80,0.00,,,0.00,,2013-02-02 21:21:00,
2013-02-02 13:32:00,44.0,38.0,29.75,West,270,1.0,1.0,80,0.00,,,0.00,,2013-02-02 21:32:00,
2013-02-02 13:42:00,44.0,38.0,29.75,West,270,1.0,1.0,80,0.00,,,0.00,,2013-02-02 21:42:00,
2013-02-02 13:52:00,44.0,38.0,29.75,West,270,1.0,2.0,79,0.00,,,0.00,,2013-02-02 21:52:00,
2013-02-02 14:01:00,44.0,38.0,29.76,West,270,1.0,2.0,79,0.00,,,0.00,,2013-02-02 22:01:00,
2013-02-02 14:11:00,44.0,38.0,29.76,West,270,1.0,2.0,79,0.00,,,0.00,,2013-02-02 22:11:00,
2013-02-02 14:21:00,43.0,37.0,29.76,NNE,23,1.0,2.0,80,0.00,,,0.00,,2013-02-02 22:21:00,
2013-02-02 14:32:00,43.0,37.0,29.76,West,270,1.0,2.0,80,0.00,,,0.00,,2013-02-02 22:32:00,
2013-02-02 14:41:00,43.0,37.0,29.76,West,270,1.0,2.0,80,0.00,,,0.00,,2013-02-02 22:41:00,
2013-02-02 14:52:00,43.0,37.0,29.76,WSW,248,1.0,2.0,80,0.00,,,0.00,,2013-02-02 22:52:00,
2013-02-02 15:01:00,43.0,38.0,29.75,West,270,2.0,3.0,81,0.00,,,0.00,,2013-02-02 23:01:00,
2013-02-02 15:11:00,43.0,38.0,29.75,West,270,2.0,3.0,81,0.00,,,0.00,,2013-02-02 23:11:00,
2013-02-02 15:21:00,43.0,38.0,29.75,East,90,1.0,2.0,81,0.00,,,0.00,,2013-02-02 23:21:00,
2013-02-02 15:32:00,43.0,38.0,29.75,East,90,1.0,3.0,81,0.00,,,0.00,,2013-02-02 23:32:00,
2013-02-02 15:41:00,43.0,38.0,29.75,East,90,1.0,3.0,81,0.00,,,0.00,,2013-02-02 23:41:00,
2013-02-02 15:52:00,43.0,38.0,29.74,NNW,338,1.0,3.0,82,0.00,,,0.00,,2013-02-02 23:52:00,
2013-02-02 16:01:00,43.0,38.0,29.74,South,180,1.0,2.0,83,0.00,,,0.00,,2013-02-03 00:01:00,
2013-02-02 16:11:00,43.0,38.0,29.74,South,180,1.0,2.0,83,0.00,,,0.00,,2013-02-03 00:11:00,
2013-02-02 16:21:00,43.0,38.0,29.73,SSW,203,1.0,2.0,83,0.00,,,0.00,,2013-02-03 00:21:00,
2013-02-02 16:31:00,43.0,38.0,29.73,SSW,203,1.0,2.0,84,0.00,,,0.00,,2013-02-03 00:31:00,
2013-02-02 16:41:00,43.0,38.0,29.73,SSW,203,1.0,2.0,84,0.00,,,0.00,,2013-02-03 00:41:00,
2013-02-02 16:52:00,42.0,38.0,29.73,SSE,158,1.0,3.0,85,0.00,,,0.00,,2013-02-03 00:52:00,
2013-02-02 17:01:00,43.0,39.0,29.73,SE,135,0.0,2.0,85,0.00,,,0.00,,2013-02-03 01:01:00,
2013-02-02 17:11:00,42.0,38.0,29.73,ESE,113,0.0,2.0,86,0.00,,,0.00,,2013-02-03 01:11:00,
2013-02-02 17:21:00,42.0,38.0,29.73,ESE,113,0.0,2.0,86,0.00,,,0.00,,2013-02-03 01:21:00,
2013-02-02 17:32:00,42.0,38.0,29.73,East,90,2.0,3.0,86,0.00,,,0.00,,2013-02-03 01:32:00,
2013-02-02 17:41:00,42.0,38.0,29.73,East,90,2.0,3.0,86,0.00,,,0.00,,2013-02-03 01:41:00,
2013-02-02 17:52:00,42.0,38.0,29.73,ESE,113,2.0,3.0,87,0.00,,,0.00,,2013-02-03 01:52:00,
2013-02-02 18:01:00,42.0,39.0,29.72,SE,135,2.0,5.0,88,0.00,,,0.00,,2013-02-03 02:01:00,
2013-02-02 18:11:00,42.0,39.0,29.72,SE,135,2.0,5.0,88,0.00,,,0.00,,2013-02-03 02:11:00,
2013-02-02 18:21:00,41.0,38.0,29.71,ENE,68,2.0,4.0,88,0.00,,,0.00,,2013-02-03 02:21:00,
2013-02-02 18:31:00,41.0,38.0,29.71,NNW,338,0.0,2.0,88,0.00,,,0.00,,2013-02-03 02:31:00,
2013-02-02 18:41:00,41.0,38.0,29.71,NNW,338,0.0,2.0,88,0.00,,,0.00,,2013-02-03 02:41:00,
2013-02-02 18:52:00,41.0,38.0,29.73,West,270,0.0,0.0,88,0.00,,,0.00,,2013-02-03 02:52:00,
2013-02-02 19:01:00,41.0,38.0,29.73,SW,225,0.0,2.0,88,0.00,,,0.00,,2013-02-03 03:01:00,
2013-02-02 19:11:00,41.0,38.0,29.73,NNW,338,0.0,0.0,88,0.00,,,0.00,,2013-02-03 03:11:00,
2013-02-02 19:21:00,41.0,38.0,29.73,NNW,338,0.0,0.0,88,0.00,,,0.00,,2013-02-03 03:21:00,
2013-02-02 19:31:00,41.0,38.0,29.73,East,90,0.0,0.0,89,0.00,,,0.00,,2013-02-03 03:31:00,
2013-02-02 19:41:00,41.0,38.0,29.73,East,90,0.0,0.0,89,0.00,,,0.00,,2013-02-03 03:41:00,
2013-02-02 19:52:00,41.0,38.0,29.73,NNE,23,0.0,0.0,89,0.00,,,0.00,,2013-02-03 03:52:00,
2013-02-02 20:01:00,41.0,38.0,29.73,East,90,0.0,0.0,89,0.00,,,0.00,,2013-02-03 04:01:00,
2013-02-02 20:11:00,41.0,38.0,29.73,East,90,0.0,0.0,89,0.00,,,0.00,,2013-02-03 04:11:00,
2013-02-02 20:21:00,41.0,38.0,29.72,SE,135,1.0,3.0,89,0.00,,,0.00,,2013-02-03 04:21:00,
2013-02-02 20:31:00,41.0,38.0,29.72,NNW,338,0.0,1.0,89,0.00,,,0.00,,2013-02-03 04:31:00,
2013-02-02 20:42:00,41.0,38.0,29.72,NNW,338,0.0,1.0,89,0.00,,,0.00,,2013-02-03 04:42:00,
2013-02-02 20:51:00,41.0,38.0,29.73,ESE,113,0.0,0.0,89,0.00,,,0.00,,2013-02-03 04:51:00,
2013-02-02 21:03:00,41.0,38.0,29.72,SE,135,0.0,0.0,89,0.00,,,0.00,,2013-02-03 05:03:00,
2013-02-02 21:11:00,41.0,38.0,29.72,SE,135,0.0,0.0,89,0.00,,,0.00,,2013-02-03 05:11:00,
2013-02-02 21:22:00,41.0,38.0,29.73,South,180,0.0,0.0,90,0.00,,,0.00,,2013-02-03 05:22:00,
2013-02-02 21:31:00,41.0,38.0,29.73,West,270,0.0,0.0,90,0.00,,,0.00,,2013-02-03 05:31:00,
2013-02-02 21:41:00,41.0,38.0,29.73,West,270,0.0,0.0,90,0.00,,,0.00,,2013-02-03 05:41:00,
2013-02-02 21:52:00,41.0,39.0,29.73,East,90,0.0,1.0,91,0.00,,,0.00,,2013-02-03 05:52:00,
2013-02-02 22:02:00,41.0,39.0,29.72,ESE,113,1.0,2.0,91,0.00,,,0.00,,2013-02-03 06:02:00,
2013-02-02 22:11:00,41.0,39.0,29.72,ESE,113,1.0,2.0,91,0.00,,,0.00,,2013-02-03 06:11:00,
2013-02-02 22:21:00,41.0,39.0,29.74,SE,135,1.0,2.0,91,0.00,,,0.00,,2013-02-03 06:21:00,
2013-02-02 22:31:00,40.0,38.0,29.74,ESE,113,1.0,1.0,91,0.00,,,0.00,,2013-02-03 06:31:00,
2013-02-02 22:41:00,40.0,38.0,29.74,ESE,113,1.0,1.0,91,0.00,,,0.00,,2013-02-03 06:41:00,
2013-02-02 22:52:00,40.0,37.0,29.74,ESE,113,1.0,2.0,90,0.00,,,0.00,,2013-02-03 06:52:00,
2013-02-02 23:01:00,39.0,36.0,29.74,ESE,113,0.0,1.0,90,0.00,,,0.00,,2013-02-03 07:01:00,
2013-02-02 23:11:00,39.0,36.0,29.74,ESE,113,0.0,1.0,90,0.00,,,0.00,,2013-02-03 07:11:00,
2013-02-02 23:21:00,39.0,36.0,29.74,SW,225,0.0,0.0,90,0.00,,,0.00,,2013-02-03 07:21:00,
2013-02-02 23:31:00,38.0,35.0,29.74,SW,225,0.0,0.0,90,0.00,,,0.00,,2013-02-03 07:31:00,
2013-02-02 23:41:00,38.0,35.0,29.74,SW,225,0.0,0.0,90,0.00,,,0.00,,2013-02-03 07:41:00,
2013-02-02 23:52:00,38.0,36.0,29.74,WNW,293,0.0,0.0,91,0.00,,,0.00,,2013-02-03 07:52:00,